YMA7608 MMVA-MHLM

Flight info

Callsign YMA7608
Flight time 0h 51m
Altitude 31000
Route MMVA OLORI PESGA MHLM
Aircraft B738/M-VGDW/C

Departure

Time 2026-04-21 08:56
Airport Carlos Rovirosa Pérez International Airport (MMVA)

Arrival

Time 2026-04-21 09:47
Airport Ramón Villeda Morales International Airport (MHLM)
Time Latitude Longitude Altitude Speed Heading
2026-04-21 08:01 17.99353 -92.82117 45 ft 0 kts 178°
2026-04-21 08:50 17.99356 -92.82117 45 ft 2 kts 178°
2026-04-21 08:50 17.99371 -92.82117 45 ft 1 kts 178°
2026-04-21 08:50 17.99380 -92.82118 45 ft 1 kts 158°
2026-04-21 08:50 17.99389 -92.82128 45 ft 1 kts 98°
2026-04-21 08:51 17.99389 -92.82135 45 ft 1 kts 81°
2026-04-21 08:51 17.99388 -92.82139 45 ft 0 kts 86°
2026-04-21 08:53 17.99388 -92.82136 45 ft 2 kts 86°
2026-04-21 08:53 17.99393 -92.82076 46 ft 12 kts 84°
2026-04-21 08:53 17.99444 -92.82023 47 ft 10 kts
2026-04-21 08:53 17.99505 -92.82049 46 ft 10 kts 298°
2026-04-21 08:54 17.99537 -92.82117 45 ft 11 kts 297°
2026-04-21 08:54 17.99579 -92.82201 43 ft 14 kts 297°
2026-04-21 08:54 17.99627 -92.82296 42 ft 15 kts 295°
2026-04-21 08:54 17.99647 -92.82404 40 ft 15 kts 268°
2026-04-21 08:55 17.99642 -92.82523 38 ft 16 kts 267°
2026-04-21 08:55 17.99625 -92.82637 38 ft 15 kts 246°
2026-04-21 08:55 17.99581 -92.82710 37 ft 10 kts 272°
2026-04-21 08:55 17.99627 -92.82723 37 ft 9 kts 63°
2026-04-21 08:56 17.99639 -92.82612 38 ft 46 kts 86°
2026-04-21 08:56 17.99680 -92.81899 47 ft 143 kts 85°
2026-04-21 08:56 17.99676 -92.80694 647 ft 166 kts 92°
2026-04-21 08:56 17.99693 -92.79503 1234 ft 182 kts 83°
2026-04-21 08:57 17.99774 -92.78037 1852 ft 220 kts 83°
2026-04-21 08:57 17.99892 -92.76306 2499 ft 258 kts 83°
2026-04-21 08:57 18.00021 -92.74419 3190 ft 260 kts 84°
2026-04-21 08:57 18.00163 -92.72540 3879 ft 261 kts 84°
2026-04-21 08:58 18.00315 -92.70639 4593 ft 262 kts 84°
2026-04-21 08:58 18.00451 -92.68741 5291 ft 265 kts 85°
2026-04-21 08:58 18.00593 -92.66805 6000 ft 267 kts 85°
2026-04-21 08:58 18.00724 -92.64865 6704 ft 270 kts 85°
2026-04-21 08:59 18.00511 -92.62934 7390 ft 274 kts 110°
2026-04-21 08:59 17.99761 -92.61073 8112 ft 279 kts 112°
2026-04-21 08:59 17.98976 -92.59216 8802 ft 282 kts 112°
2026-04-21 08:59 17.98176 -92.57320 9475 ft 285 kts 112°
2026-04-21 09:00 17.97453 -92.55390 10158 ft 288 kts 99°
2026-04-21 09:00 17.97223 -92.53256 10894 ft 307 kts 95°
2026-04-21 09:00 17.97000 -92.50968 11589 ft 330 kts 94°
2026-04-21 09:00 17.96787 -92.48486 12272 ft 351 kts 94°
2026-04-21 09:01 17.96559 -92.45875 12921 ft 368 kts 94°
2026-04-21 09:01 17.96320 -92.43219 13557 ft 370 kts 94°
2026-04-21 09:01 17.96073 -92.40510 14173 ft 371 kts 93°
2026-04-21 09:01 17.95832 -92.37825 14780 ft 374 kts 93°
2026-04-21 09:02 17.95589 -92.35094 15365 ft 376 kts 94°
2026-04-21 09:02 17.95350 -92.32348 15960 ft 379 kts 94°
2026-04-21 09:02 17.95112 -92.29620 16524 ft 382 kts 94°
2026-04-21 09:03 17.94545 -92.24022 17643 ft 385 kts 95°
2026-04-21 09:03 17.93878 -92.21325 18158 ft 393 kts 115°
2026-04-21 09:03 17.92625 -92.18755 18714 ft 400 kts 115°
2026-04-21 09:03 17.91341 -92.16135 19238 ft 405 kts 116°
2026-04-21 09:04 17.90014 -92.13509 19783 ft 410 kts 116°
2026-04-21 09:04 17.88682 -92.10855 20286 ft 414 kts 116°
2026-04-21 09:04 17.87345 -92.08177 20788 ft 418 kts 116°
2026-04-21 09:04 17.86013 -92.05421 21280 ft 422 kts 115°
2026-04-21 09:05 17.84690 -92.02640 21791 ft 428 kts 115°
2026-04-21 09:05 17.83363 -91.99857 22275 ft 433 kts 116°
2026-04-21 09:05 17.81986 -91.97057 22747 ft 438 kts 116°
2026-04-21 09:05 17.80603 -91.94200 23237 ft 440 kts 116°
2026-04-21 09:06 17.79214 -91.91300 23719 ft 443 kts 117°
2026-04-21 09:06 17.77821 -91.88455 24193 ft 444 kts 117°
2026-04-21 09:06 17.76408 -91.85537 24661 ft 447 kts 117°
2026-04-21 09:06 17.75013 -91.82643 25107 ft 449 kts 117°
2026-04-21 09:07 17.73617 -91.79735 25552 ft 451 kts 117°
2026-04-21 09:07 17.72199 -91.76792 25995 ft 454 kts 118°
2026-04-21 09:07 17.70736 -91.73827 26433 ft 458 kts 118°
2026-04-21 09:07 17.69275 -91.70848 26858 ft 460 kts 118°
2026-04-21 09:08 17.67826 -91.67866 27289 ft 463 kts 118°
2026-04-21 09:08 17.66375 -91.64861 27714 ft 465 kts 118°
2026-04-21 09:08 17.64911 -91.61814 28128 ft 468 kts 119°
2026-04-21 09:08 17.63417 -91.58799 28548 ft 470 kts 119°
2026-04-21 09:09 17.61904 -91.55720 28963 ft 472 kts 119°
2026-04-21 09:09 17.60414 -91.52676 29361 ft 476 kts 119°
2026-04-21 09:09 17.58903 -91.49583 29759 ft 480 kts 119°
2026-04-21 09:09 17.57382 -91.46463 30161 ft 484 kts 119°
2026-04-21 09:10 17.55835 -91.43280 30566 ft 486 kts 119°
2026-04-21 09:10 17.54315 -91.40144 30949 ft 490 kts 119°
2026-04-21 09:10 17.51178 -91.33688 31041 ft 489 kts 119°
2026-04-21 09:11 17.48137 -91.27466 31054 ft 482 kts 119°
2026-04-21 09:11 17.45085 -91.21193 31065 ft 487 kts 119°
2026-04-21 09:12 17.41970 -91.14829 31052 ft 490 kts 120°
2026-04-21 09:12 17.38803 -91.08520 31061 ft 489 kts 119°
2026-04-21 09:13 17.35730 -91.02195 31059 ft 489 kts 119°
2026-04-21 09:13 17.32618 -90.95853 31057 ft 488 kts 120°
2026-04-21 09:14 17.29462 -90.89573 31054 ft 490 kts 120°
2026-04-21 09:14 17.26370 -90.83209 31051 ft 489 kts 119°
2026-04-21 09:15 17.23278 -90.76863 31047 ft 490 kts 118°
2026-04-21 09:15 17.20182 -90.70576 31046 ft 488 kts 120°
2026-04-21 09:16 17.16994 -90.64294 31049 ft 490 kts 120°
2026-04-21 09:16 17.13876 -90.57973 31049 ft 490 kts 119°
2026-04-21 09:17 17.10800 -90.51633 31049 ft 490 kts 118°
2026-04-21 09:17 17.07637 -90.45319 31047 ft 492 kts 120°
2026-04-21 09:18 17.04448 -90.39000 31047 ft 490 kts 119°
2026-04-21 09:18 17.01366 -90.32664 31043 ft 489 kts 119°
2026-04-21 09:19 16.98228 -90.26359 31044 ft 490 kts 120°
2026-04-21 09:19 16.95056 -90.20054 31044 ft 490 kts 118°
2026-04-21 09:20 16.91969 -90.13731 31046 ft 489 kts 118°
2026-04-21 09:20 16.88806 -90.07456 31059 ft 490 kts 120°
2026-04-21 09:21 16.85613 -90.01136 31064 ft 491 kts 120°
2026-04-21 09:21 16.82442 -89.94781 31065 ft 490 kts 118°
2026-04-21 09:22 16.74739 -89.79357 31067 ft 490 kts 119°
2026-04-21 09:22 16.71576 -89.73121 31065 ft 490 kts 119°
2026-04-21 09:23 16.68458 -89.66805 31069 ft 490 kts 118°
2026-04-21 09:23 16.65302 -89.60499 31076 ft 490 kts 119°
2026-04-21 09:24 16.61916 -89.54414 31037 ft 485 kts 134°
2026-04-21 09:24 16.57165 -89.49390 31093 ft 486 kts 136°
2026-04-21 09:25 16.52459 -89.44339 31090 ft 484 kts 135°
2026-04-21 09:25 16.47793 -89.39281 31087 ft 485 kts 135°
2026-04-21 09:26 16.43128 -89.34212 31089 ft 486 kts 135°
2026-04-21 09:26 16.38446 -89.29124 31083 ft 484 kts 135°
2026-04-21 09:27 16.33859 -89.23994 31066 ft 484 kts 134°
2026-04-21 09:27 16.31952 -89.21078 31047 ft 489 kts 115°
2026-04-21 09:27 16.31112 -89.17684 31085 ft 492 kts 97°
2026-04-21 09:28 16.29428 -89.04048 31054 ft 491 kts 101°
2026-04-21 09:28 16.28248 -88.97079 31041 ft 491 kts 101°
2026-04-21 09:29 16.27062 -88.90101 31025 ft 492 kts 101°
2026-04-21 09:29 16.25863 -88.83079 30983 ft 494 kts 101°
2026-04-21 09:30 16.25253 -88.79511 29889 ft 502 kts 101°
2026-04-21 09:30 16.24666 -88.76028 28713 ft 478 kts 101°
2026-04-21 09:30 16.24110 -88.72708 28430 ft 461 kts 101°
2026-04-21 09:30 16.23560 -88.69441 27825 ft 465 kts 101°
2026-04-21 09:31 16.23003 -88.66124 27006 ft 466 kts 101°
2026-04-21 09:31 16.22432 -88.62849 26089 ft 458 kts 101°
2026-04-21 09:31 16.21867 -88.59637 25514 ft 444 kts 101°
2026-04-21 09:31 16.21318 -88.56534 24985 ft 440 kts 101°
2026-04-21 09:32 16.20749 -88.53387 24109 ft 444 kts 100°
2026-04-21 09:32 16.20218 -88.50272 23511 ft 433 kts 99°
2026-04-21 09:32 16.19695 -88.47230 22996 ft 430 kts 99°
2026-04-21 09:32 16.19168 -88.44170 22463 ft 427 kts 99°
2026-04-21 09:33 16.18645 -88.41151 21586 ft 429 kts 99°
2026-04-21 09:33 16.18117 -88.38137 20896 ft 418 kts 99°
2026-04-21 09:33 16.17597 -88.35188 20378 ft 410 kts 99°
2026-04-21 09:33 16.17086 -88.32288 19555 ft 410 kts 99°
2026-04-21 09:34 16.16572 -88.29407 19023 ft 403 kts 99°
2026-04-21 09:34 16.16061 -88.26562 18532 ft 400 kts 99°
2026-04-21 09:34 16.15572 -88.23711 17639 ft 402 kts 98°
2026-04-21 09:34 16.15105 -88.20928 17070 ft 390 kts 98°
2026-04-21 09:35 16.14646 -88.18168 16347 ft 387 kts 99°
2026-04-21 09:35 16.14168 -88.15452 15767 ft 379 kts 99°
2026-04-21 09:35 16.13694 -88.12756 15052 ft 381 kts 99°
2026-04-21 09:35 16.13250 -88.10182 14707 ft 343 kts 99°
2026-04-21 09:36 16.12849 -88.07855 14455 ft 317 kts 99°
2026-04-21 09:36 16.12328 -88.05633 13830 ft 319 kts 116°
2026-04-21 09:36 16.10929 -88.03868 13068 ft 326 kts 145°
2026-04-21 09:36 16.08919 -88.02843 12670 ft 319 kts 155°
2026-04-21 09:37 16.06878 -88.01930 12009 ft 321 kts 155°
2026-04-21 09:37 16.04828 -88.01021 11444 ft 321 kts 155°
2026-04-21 09:37 16.02817 -88.00133 10836 ft 305 kts 155°
2026-04-21 09:37 16.00902 -87.99300 10716 ft 297 kts 155°
2026-04-21 09:38 15.98981 -87.98464 10372 ft 298 kts 155°
2026-04-21 09:38 15.97066 -87.97636 10073 ft 296 kts 155°
2026-04-21 09:38 15.95164 -87.96815 9764 ft 295 kts 155°
2026-04-21 09:38 15.93285 -87.95982 9436 ft 293 kts 155°
2026-04-21 09:39 15.91398 -87.95138 9145 ft 293 kts 154°
2026-04-21 09:39 15.89527 -87.94308 8822 ft 292 kts 154°
2026-04-21 09:39 15.87664 -87.93460 8503 ft 287 kts 153°
2026-04-21 09:39 15.85927 -87.92511 8193 ft 280 kts 148°
2026-04-21 09:40 15.84274 -87.91560 8058 ft 254 kts 148°
2026-04-21 09:40 15.82773 -87.90687 7870 ft 241 kts 147°
2026-04-21 09:40 15.81322 -87.89835 7564 ft 235 kts 147°
2026-04-21 09:40 15.79908 -87.89011 7231 ft 235 kts 147°
2026-04-21 09:41 15.78461 -87.88165 6910 ft 236 kts 147°
2026-04-21 09:41 15.77033 -87.87334 6606 ft 235 kts 147°
2026-04-21 09:41 15.75613 -87.86513 6310 ft 233 kts 146°
2026-04-21 09:41 15.74192 -87.85668 6075 ft 233 kts 146°
2026-04-21 09:42 15.72771 -87.84869 5801 ft 236 kts 157°
2026-04-21 09:42 15.71133 -87.84577 5555 ft 237 kts 173°
2026-04-21 09:42 15.69496 -87.84440 5269 ft 235 kts 173°
2026-04-21 09:42 15.67870 -87.84308 4991 ft 231 kts 173°
2026-04-21 09:43 15.66291 -87.84174 4708 ft 226 kts 173°
2026-04-21 09:43 15.64722 -87.84039 4446 ft 224 kts 173°
2026-04-21 09:43 15.63153 -87.83898 4161 ft 223 kts 173°
2026-04-21 09:43 15.61623 -87.83759 3887 ft 219 kts 173°
2026-04-21 09:44 15.60090 -87.83622 3618 ft 219 kts 173°
2026-04-21 09:44 15.58569 -87.83485 3346 ft 215 kts 173°
2026-04-21 09:44 15.57119 -87.83362 3073 ft 207 kts 177°
2026-04-21 09:44 15.55739 -87.83686 2806 ft 200 kts 197°
2026-04-21 09:45 15.54508 -87.84257 2508 ft 191 kts 219°
2026-04-21 09:45 15.53492 -87.85137 2280 ft 184 kts 220°
2026-04-21 09:45 15.52523 -87.85985 2024 ft 178 kts 220°
2026-04-21 09:45 15.51594 -87.86802 1751 ft 170 kts 220°
2026-04-21 09:46 15.50720 -87.87571 1525 ft 162 kts 220°
2026-04-21 09:46 15.49855 -87.88333 1250 ft 158 kts 220°
2026-04-21 09:46 15.49023 -87.89068 991 ft 151 kts 220°
2026-04-21 09:46 15.48230 -87.89763 735 ft 148 kts 219°
2026-04-21 09:47 15.47429 -87.90451 492 ft 148 kts 220°
2026-04-21 09:47 15.46647 -87.91144 252 ft 147 kts 220°
2026-04-21 09:47 15.45880 -87.91818 109 ft 141 kts 220°
2026-04-21 09:47 15.45386 -87.92249 105 ft 24 kts 219°
2026-04-21 09:48 15.45255 -87.92363 105 ft 12 kts 221°
2026-04-21 09:48 15.45214 -87.92409 105 ft 7 kts 253°
2026-04-21 09:48 15.45233 -87.92458 105 ft 7 kts 310°
2026-04-21 09:48 15.45268 -87.92503 104 ft 8 kts 309°
2026-04-21 09:49 15.45305 -87.92548 104 ft 8 kts 309°
2026-04-21 09:49 15.45344 -87.92597 103 ft 8 kts 310°
2026-04-21 09:49 15.45386 -87.92638 103 ft 7 kts 337°
2026-04-21 09:49 15.45435 -87.92628 103 ft 6 kts 24°
2026-04-21 09:50 15.45469 -87.92651 103 ft 6 kts 311°
2026-04-21 09:50 15.45496 -87.92683 103 ft 5 kts 308°
2026-04-21 09:50 15.45520 -87.92713 103 ft 5 kts 311°
2026-04-21 09:50 15.45521 -87.92715 103 ft 0 kts 311°